Location: Ariel
(45.9570°N, 122.5700°W)
Time: 00:12:00
(UTC-07:00)

Altair - Pass Details

Date: 25 July 2019
Orbit: 1501 x 1683 km, 47.2° (Epoch: 25 August)

Event Time Altitude Azimuth Distance (km) Brightness Sun altitude
Rises 17:52:59 0° 292° (WNW) 4,643 11.0 28.3°
Reaches altitude 10° 17:56:05 10° 287° (WNW) 3,669 11.0 27.8°
Maximum altitude 18:04:49 50° 216° (SW) 1,896 8.8 26.3°
Drops below altitude 10° 18:13:48 10° 145° (SE) 3,764 9.3 24.7°
Sets 18:17:02 0° 140° (SE) 4,772 9.7 24.2°
